| time (UTC) | temp F | wind direction | speed MPH | gust MPH | rain 1hr in | rain 24hr in | rain mn in | humidity % | barometer mb |
| 20260831075531 | 83 | 207 | 2.0 | 6.0 | 0.00 | 0.00 | 0.00 | 56 | 1012.7 |
| 20260831075029 | 83 | 169 | 1.0 | 7.0 | 0.00 | 0.00 | 0.00 | 56 | 1012.8 |
| 20260831074529 | 83 | 153 | 1.0 | 7.0 | 0.00 | 0.00 | 0.00 | 56 | 1012.9 |
| 20260831074028 | 83 | 192 | 1.0 | 4.0 | 0.00 | 0.00 | 0.00 | 56 | 1012.9 |
| 20260831073528 | 83 | 155 | 1.0 | 4.0 | 0.00 | 0.00 | 0.00 | 56 | 1013.0 |
| 20260831073029 | 83 | 155 | 1.0 | 4.0 | 0.00 | 0.00 | 0.00 | 56 | 1013.0 |
| 20260831072529 | 83 | 205 | 2.0 | 7.0 | 0.00 | 0.00 | 0.00 | 56 | 1012.9 |
| 20260831072026 | 83 | 182 | 2.0 | 7.0 | 0.00 | 0.00 | 0.00 | 56 | 1013.0 |
| 20260831071527 | 83 | 186 | 1.0 | 5.0 | 0.00 | 0.00 | 0.00 | 56 | 1013.2 |
| 20260831071027 | 83 | 127 | 1.0 | 4.0 | 0.00 | 0.00 | 0.00 | 56 | 1013.0 |
| 20260831070523 | 83 | 115 | 1.0 | 3.0 | 0.00 | 0.00 | 0.00 | 56 | 1013.2 |
| 20260831065022 | 83 | 187 | 1.0 | 6.0 | 0.00 | 0.00 | 0.00 | 55 | 1013.2 |
| 20260831064523 | 84 | 188 | 1.0 | 4.0 | 0.00 | 0.00 | 0.00 | 55 | 1013.2 |
| 20260831064022 | 84 | 107 | 2.0 | 4.0 | 0.00 | 0.00 | 0.00 | 55 | 1013.0 |
| 20260831063522 | 84 | 150 | 2.0 | 8.0 | 0.00 | 0.00 | 0.00 | 55 | 1013.2 |
| 20260831063023 | 84 | 152 | 2.0 | 8.0 | 0.00 | 0.00 | 0.00 | 55 | 1013.0 |
| 20260831062523 | 84 | 156 | 1.0 | 6.0 | 0.00 | 0.00 | 0.00 | 54 | 1013.0 |
| 20260831062018 | 84 | 331 | 1.0 | 6.0 | 0.00 | 0.00 | 0.00 | 54 | 1012.9 |
| 20260831061519 | 84 | 184 | 1.0 | 6.0 | 0.00 | 0.00 | 0.00 | 54 | 1012.9 |
| 20260831060519 | 85 | 242 | 1.0 | 5.0 | 0.00 | 0.00 | 0.00 | 54 | 1012.8 |
| 20260831060018 | 85 | 142 | 1.0 | 5.0 | 0.00 | 0.00 | 0.00 | 54 | 1012.8 |
| 20260831055522 | 85 | 324 | 1.0 | 7.0 | 0.00 | 0.00 | 0.00 | 54 | 1012.6 |
| 20260831055022 | 85 | 189 | 2.0 | 8.0 | 0.00 | 0.00 | 0.00 | 54 | 1012.5 |
| 20260831054521 | 85 | 165 | 2.0 | 8.0 | 0.00 | 0.00 | 0.00 | 54 | 1012.5 |
| 20260831054022 | 85 | 150 | 2.0 | 5.0 | 0.00 | 0.00 | 0.00 | 54 | 1012.3 |
| 20260831053513 | 85 | 200 | 2.0 | 5.0 | 0.00 | 0.00 | 0.00 | 53 | 1012.3 |
| 20260831053008 | 85 | 211 | 2.0 | 5.0 | 0.00 | 0.00 | 0.00 | 53 | 1012.2 |
| 20260831052502 | 85 | 166 | 1.0 | 5.0 | 0.00 | 0.00 | 0.00 | 53 | 1012.3 |
| 20260831051956 | 85 | 124 | 2.0 | 7.0 | 0.00 | 0.00 | 0.00 | 53 | 1012.3 |
| 20260831050943 | 85 | 134 | 2.0 | 10.0 | 0.00 | 0.00 | 0.00 | 53 | 1012.2 |
| 20260831050436 | 85 | 197 | 2.0 | 7.0 | 0.00 | 0.00 | 0.00 | 53 | 1012.1 |
| 20260831045423 | 85 | 137 | 2.0 | 10.0 | 0.00 | 0.00 | 0.00 | 53 | 1012.1 |
| 20260831044918 | 85 | 143 | 2.0 | 6.0 | 0.00 | 0.00 | 0.00 | 53 | 1012.0 |
| 20260831044412 | 86 | 140 | 2.0 | 8.0 | 0.00 | 0.00 | 0.00 | 53 | 1012.1 |
| 20260831043905 | 86 | 157 | 2.0 | 6.0 | 0.00 | 0.00 | 0.00 | 52 | 1012.1 |
| 20260831043359 | 86 | 144 | 2.0 | 11.0 | 0.00 | 0.00 | 0.00 | 52 | 1012.1 |
| 20260831042853 | 86 | 123 | 2.0 | 11.0 | 0.00 | 0.00 | 0.00 | 52 | 1012.0 |
| 20260831041841 | 86 | 135 | 3.0 | 10.0 | 0.00 | 0.00 | 0.00 | 52 | 1012.0 |
| 20260831041335 | 86 | 186 | 3.0 | 9.0 | 0.00 | 0.00 | 0.00 | 51 | 1012.1 |
| 20260831040829 | 87 | 134 | 3.0 | 8.0 | 0.00 | 0.00 | 0.00 | 51 | 1011.9 |
| 20260831040323 | 87 | 157 | 3.0 | 8.0 | 0.00 | 0.00 | 0.00 | 51 | 1012.0 |
| 20260831035312 | 87 | 166 | 3.0 | 7.0 | 0.00 | 0.00 | 0.00 | 51 | 1012.0 |
| 20260831034806 | 87 | 166 | 3.0 | 7.0 | 0.00 | 0.00 | 0.00 | 50 | 1012.0 |
| 20260831033753 | 87 | 89 | 3.0 | 9.0 | 0.00 | 0.00 | 0.00 | 50 | 1011.9 |
| 20260831033248 | 87 | 268 | 3.0 | 7.0 | 0.00 | 0.00 | 0.00 | 50 | 1011.9 |
| 20260831032741 | 88 | 166 | 4.0 | 9.0 | 0.00 | 0.00 | 0.00 | 50 | 1011.8 |
| 20260831032235 | 88 | 126 | 4.0 | 11.0 | 0.00 | 0.00 | 0.00 | 49 | 1011.8 |
| 20260831031729 | 88 | 138 | 4.0 | 11.0 | 0.00 | 0.00 | 0.00 | 49 | 1011.8 |
| 20260831030717 | 88 | 132 | 4.0 | 9.0 | 0.00 | 0.00 | 0.00 | 49 | 1011.7 |
| 20260831030211 | 88 | 146 | 3.0 | 10.0 | 0.00 | 0.00 | 0.00 | 49 | 1011.7 |
| 20260831025705 | 88 | 134 | 3.0 | 10.0 | 0.00 | 0.00 | 0.00 | 48 | 1011.7 |
| 20260831025200 | 89 | 138 | 4.0 | 14.0 | 0.00 | 0.00 | 0.00 | 48 | 1011.7 |
| 20260831024653 | 89 | 150 | 4.0 | 14.0 | 0.00 | 0.00 | 0.00 | 48 | 1011.7 |
| 20260831024147 | 89 | 166 | 4.0 | 11.0 | 0.00 | 0.00 | 0.00 | 48 | 1011.8 |
| 20260831023641 | 89 | 150 | 4.0 | 9.0 | 0.00 | 0.00 | 0.00 | 48 | 1011.6 |
| 20260831023135 | 89 | 117 | 4.0 | 11.0 | 0.00 | 0.00 | 0.00 | 48 | 1011.7 |
| 20260831022123 | 89 | 156 | 3.0 | 15.0 | 0.00 | 0.00 | 0.00 | 48 | 1011.6 |
| 20260831021111 | 89 | 163 | 4.0 | 16.0 | 0.00 | 0.00 | 0.00 | 48 | 1011.5 |
| 20260831020606 | 89 | 172 | 3.0 | 11.0 | 0.00 | 0.00 | 0.00 | 48 | 1011.6 |
| 20260831020107 | 89 | 124 | 3.0 | 9.0 | 0.00 | 0.00 | 0.00 | 48 | 1011.5 |
| 20260831015107 | 90 | 180 | 4.0 | 12.0 | 0.00 | 0.00 | 0.00 | 48 | 1011.2 |
| 20260831014607 | 90 | 172 | 4.0 | 10.0 | 0.00 | 0.00 | 0.00 | 48 | 1011.3 |
| 20260831014107 | 90 | 148 | 3.0 | 9.0 | 0.00 | 0.00 | 0.00 | 48 | 1011.2 |
| 20260831013605 | 90 | 154 | 3.0 | 10.0 | 0.00 | 0.00 | 0.00 | 49 | 1011.1 |
| 20260831013104 | 90 | 158 | 3.0 | 11.0 | 0.00 | 0.00 | 0.00 | 49 | 1011.1 |
| 20260831012605 | 90 | 169 | 3.0 | 11.0 | 0.00 | 0.00 | 0.00 | 48 | 1011.1 |
| 20260831012105 | 91 | 148 | 3.0 | 9.0 | 0.00 | 0.00 | 0.00 | 48 | 1011.1 |
| 20260831011608 | 91 | 173 | 3.0 | 8.0 | 0.00 | 0.00 | 0.00 | 48 | 1011.0 |
| 20260831011105 | 91 | 115 | 2.0 | 6.0 | 0.00 | 0.00 | 0.00 | 48 | 1011.1 |
| 20260831010605 | 92 | 164 | 3.0 | 6.0 | 0.00 | 0.00 | 0.00 | 47 | 1011.0 |
| 20260831010104 | 92 | 120 | 3.0 | 6.0 | 0.00 | 0.00 | 0.00 | 47 | 1011.0 |
| 20260831004600 | 93 | 123 | 3.0 | 7.0 | 0.00 | 0.00 | 0.00 | 45 | 1011.0 |
| 20260831004101 | 94 | 158 | 3.0 | 7.0 | 0.00 | 0.00 | 0.00 | 45 | 1011.0 |
| 20260831003600 | 94 | 135 | 3.0 | 7.0 | 0.00 | 0.00 | 0.00 | 45 | 1011.0 |
| 20260831003101 | 94 | 119 | 3.0 | 7.0 | 0.00 | 0.00 | 0.00 | 45 | 1010.9 |
| 20260831002600 | 94 | 159 | 2.0 | 5.0 | 0.00 | 0.00 | 0.00 | 45 | 1011.0 |
| 20260831002100 | 95 | 111 | 2.0 | 7.0 | 0.00 | 0.00 | 0.00 | 44 | 1011.0 |
| 20260831001601 | 95 | 158 | 2.0 | 7.0 | 0.00 | 0.00 | 0.00 | 44 | 1011.1 |
| 20260830235600 | 97 | 159 | 2.0 | 7.0 | 0.00 | 0.00 | 0.00 | 42 | 1010.9 |
| 20260830234601 | 97 | 143 | 3.0 | 7.0 | 0.00 | 0.00 | 0.00 | 40 | 1010.8 |
| 20260830234101 | 98 | 136 | 2.0 | 6.0 | 0.00 | 0.00 | 0.00 | 40 | 1010.8 |
| 20260830233601 | 98 | 168 | 2.0 | 6.0 | 0.00 | 0.00 | 0.00 | 40 | 1010.7 |
| 20260830232059 | 99 | 148 | 2.0 | 9.0 | 0.00 | 0.00 | 0.00 | 39 | 1010.8 |
| 20260830231553 | 99 | 135 | 2.0 | 9.0 | 0.00 | 0.00 | 0.00 | 38 | 1010.7 |
| 20260830231054 | 99 | 118 | 2.0 | 9.0 | 0.00 | 0.00 | 0.00 | 38 | 1010.6 |
| 20260830230552 | 99 | 175 | 2.0 | 9.0 | 0.00 | 0.00 | 0.00 | 38 | 1010.7 |
| 20260830230055 | 100 | 156 | 2.0 | 9.0 | 0.00 | 0.00 | 0.00 | 38 | 1010.6 |
| 20260830225050 | 100 | 149 | 3.0 | 10.0 | 0.00 | 0.00 | 0.00 | 37 | 1010.6 |
| 20260830224550 | 100 | 166 | 2.0 | 10.0 | 0.00 | 0.00 | 0.00 | 38 | 1010.6 |
| 20260830224051 | 100 | 165 | 2.0 | 9.0 | 0.00 | 0.00 | 0.00 | 37 | 1010.6 |
| 20260830223050 | 101 | 126 | 2.0 | 8.0 | 0.00 | 0.00 | 0.00 | 39 | 1010.5 |
| 20260830222548 | 101 | 209 | 2.0 | 8.0 | 0.00 | 0.00 | 0.00 | 40 | 1010.5 |
| 20260830221548 | 101 | 163 | 2.0 | 10.0 | 0.00 | 0.00 | 0.00 | 37 | 1010.4 |
| 20260830221046 | 101 | 123 | 3.0 | 10.0 | 0.00 | 0.00 | 0.00 | 38 | 1010.4 |
| 20260830220546 | 101 | 242 | 3.0 | 10.0 | 0.00 | 0.00 | 0.00 | 38 | 1010.5 |
| 20260830220046 | 101 | 169 | 3.0 | 11.0 | 0.00 | 0.00 | 0.00 | 38 | 1010.6 |
| 20260830215544 | 101 | 141 | 3.0 | 11.0 | 0.00 | 0.00 | 0.00 | 37 | 1010.5 |
| 20260830214540 | 101 | 215 | 3.0 | 11.0 | 0.00 | 0.00 | 0.00 | 39 | 1010.6 |
| 20260830213528 | 101 | 153 | 2.0 | 9.0 | 0.00 | 0.00 | 0.00 | 40 | 1010.5 |
| 20260830213023 | 102 | 150 | 2.0 | 7.0 | 0.00 | 0.00 | 0.00 | 39 | 1010.7 |
| 20260830212516 | 102 | 115 | 3.0 | 11.0 | 0.00 | 0.00 | 0.00 | 40 | 1010.6 |
| 20260830211504 | 101 | 172 | 3.0 | 9.0 | 0.00 | 0.00 | 0.00 | 40 | 1010.8 |
| 20260830210958 | 101 | 157 | 3.0 | 11.0 | 0.00 | 0.00 | 0.00 | 43 | 1010.9 |
| 20260830210452 | 101 | 159 | 3.0 | 11.0 | 0.00 | 0.00 | 0.00 | 41 | 1011.0 |
| 20260830205947 | 101 | 161 | 3.0 | 8.0 | 0.00 | 0.00 | 0.00 | 41 | 1011.1 |
| 20260830205440 | 101 | 105 | 3.0 | 10.0 | 0.00 | 0.00 | 0.00 | 41 | 1011.0 |
| 20260830204934 | 101 | 114 | 4.0 | 13.0 | 0.00 | 0.00 | 0.00 | 41 | 1011.2 |
| 20260830204428 | 101 | 171 | 4.0 | 13.0 | 0.00 | 0.00 | 0.00 | 40 | 1011.3 |
| 20260830203923 | 101 | 146 | 3.0 | 11.0 | 0.00 | 0.00 | 0.00 | 41 | 1011.3 |
| 20260830202404 | 101 | 178 | 4.0 | 12.0 | 0.00 | 0.00 | 0.00 | 40 | 1011.5 |
| 20260830201858 | 101 | 144 | 3.0 | 13.0 | 0.00 | 0.00 | 0.00 | 41 | 1011.5 |
| 20260830201352 | 101 | 158 | 3.0 | 13.0 | 0.00 | 0.00 | 0.00 | 41 | 1011.8 |
| 20260830200846 | 101 | 144 | 3.0 | 9.0 | 0.00 | 0.00 | 0.00 | 40 | 1011.6 |
| 20260830200344 | 101 | 166 | 2.0 | 9.0 | 0.00 | 0.00 | 0.00 | 41 | 1011.6 |
| 20260830195844 | 101 | 278 | 2.0 | 8.0 | 0.00 | 0.00 | 0.00 | 40 | 1011.7 |
| 20260830194844 | 100 | 240 | 4.0 | 14.0 | 0.00 | 0.00 | 0.00 | 44 | 1011.6 |
| 20260830194344 | 100 | 159 | 4.0 | 14.0 | 0.00 | 0.00 | 0.00 | 44 | 1011.8 |
| 20260830193344 | 100 | 166 | 4.0 | 16.0 | 0.00 | 0.00 | 0.00 | 44 | 1011.9 |
| 20260830192842 | 99 | 180 | 4.0 | 16.0 | 0.00 | 0.00 | 0.00 | 44 | 1012.0 |
| 20260830192342 | 100 | 151 | 3.0 | 9.0 | 0.00 | 0.00 | 0.00 | 45 | 1012.1 |
| 20260830191841 | 99 | 223 | 4.0 | 10.0 | 0.00 | 0.00 | 0.00 | 44 | 1012.1 |
| 20260830190842 | 99 | 179 | 3.0 | 13.0 | 0.00 | 0.00 | 0.00 | 45 | 1012.1 |
| 20260830190341 | 98 | 120 | 3.0 | 13.0 | 0.00 | 0.00 | 0.00 | 45 | 1012.1 |
| 20260830185842 | 98 | 134 | 3.0 | 13.0 | 0.00 | 0.00 | 0.00 | 46 | 1012.1 |
| 20260830185342 | 98 | 142 | 5.0 | 14.0 | 0.00 | 0.00 | 0.00 | 45 | 1012.0 |
| 20260830184842 | 98 | 161 | 5.0 | 15.0 | 0.00 | 0.00 | 0.00 | 45 | 1012.1 |
| 20260830184342 | 98 | 138 | 3.0 | 15.0 | 0.00 | 0.00 | 0.00 | 45 | 1012.2 |
| 20260830183835 | 98 | 164 | 3.0 | 15.0 | 0.00 | 0.00 | 0.00 | 46 | 1012.2 |
| 20260830183330 | 98 | 90 | 4.0 | 15.0 | 0.00 | 0.00 | 0.00 | 46 | 1012.3 |
| 20260830182824 | 97 | 144 | 3.0 | 13.0 | 0.00 | 0.00 | 0.00 | 47 | 1012.4 |
| 20260830182318 | 97 | 154 | 3.0 | 13.0 | 0.00 | 0.00 | 0.00 | 47 | 1012.5 |
| 20260830181812 | 97 | 123 | 3.0 | 10.0 | 0.00 | 0.00 | 0.00 | 47 | 1012.5 |
| 20260830181306 | 97 | 142 | 3.0 | 10.0 | 0.00 | 0.00 | 0.00 | 47 | 1012.6 |
| 20260830180800 | 97 | 196 | 3.0 | 14.0 | 0.00 | 0.00 | 0.00 | 47 | 1012.6 |
| 20260830180253 | 97 | 223 | 3.0 | 14.0 | 0.00 | 0.00 | 0.00 | 48 | 1012.6 |
| 20260830175748 | 97 | 232 | 2.0 | 9.0 | 0.00 | 0.00 | 0.00 | 48 | 1012.7 |
| 20260830175242 | 96 | 215 | 2.0 | 9.0 | 0.00 | 0.00 | 0.00 | 48 | 1012.9 |
| 20260830174742 | 96 | 213 | 3.0 | 9.0 | 0.00 | 0.00 | 0.00 | 48 | 1012.9 |
| 20260830174241 | 96 | 167 | 3.0 | 11.0 | 0.00 | 0.00 | 0.00 | 48 | 1012.8 |
| 20260830173740 | 96 | 132 | 3.0 | 11.0 | 0.00 | 0.00 | 0.00 | 51 | 1012.9 |
| 20260830173240 | 96 | 192 | 3.0 | 11.0 | 0.00 | 0.00 | 0.00 | 49 | 1012.9 |
| 20260830172739 | 96 | 142 | 2.0 | 8.0 | 0.00 | 0.00 | 0.00 | 51 | 1013.0 |
| 20260830172237 | 96 | 169 | 2.0 | 8.0 | 0.00 | 0.00 | 0.00 | 51 | 1013.2 |
| 20260830171738 | 95 | 144 | 2.0 | 8.0 | 0.00 | 0.00 | 0.00 | 53 | 1013.2 |
| 20260830171237 | 95 | 134 | 2.0 | 7.0 | 0.00 | 0.00 | 0.00 | 51 | 1013.2 |
| 20260830170735 | 94 | 182 | 2.0 | 9.0 | 0.00 | 0.00 | 0.00 | 53 | 1013.2 |
| 20260830165736 | 93 | 141 | 3.0 | 17.0 | 0.00 | 0.00 | 0.00 | 51 | 1013.2 |
| 20260830164733 | 92 | 178 | 3.0 | 9.0 | 0.00 | 0.00 | 0.00 | 52 | 1013.2 |
| 20260830164233 | 92 | 139 | 3.0 | 10.0 | 0.00 | 0.00 | 0.00 | 52 | 1013.3 |
| 20260830163732 | 92 | 252 | 3.0 | 10.0 | 0.00 | 0.00 | 0.00 | 53 | 1013.3 |
| 20260830163228 | 92 | 244 | 2.0 | 8.0 | 0.00 | 0.00 | 0.00 | 53 | 1013.2 |
| 20260830162727 | 91 | 53 | 2.0 | 11.0 | 0.00 | 0.00 | 0.00 | 55 | 1013.2 |
| 20260830161728 | 91 | 144 | 3.0 | 12.0 | 0.00 | 0.00 | 0.00 | 53 | 1013.2 |
| 20260830160727 | 90 | 175 | 3.0 | 13.0 | 0.00 | 0.00 | 0.00 | 54 | 1013.3 |
| 20260830160227 | 89 | 249 | 3.0 | 13.0 | 0.00 | 0.00 | 0.00 | 54 | 1013.3 |
| 20260830155228 | 89 | 215 | 2.0 | 7.0 | 0.00 | 0.00 | 0.00 | 55 | 1013.2 |
| 20260830154724 | 89 | 130 | 2.0 | 12.0 | 0.00 | 0.00 | 0.00 | 55 | 1013.2 |
| 20260830154223 | 88 | 292 | 2.0 | 12.0 | 0.00 | 0.00 | 0.00 | 56 | 1012.9 |
| 20260830153224 | 88 | 248 | 2.0 | 8.0 | 0.00 | 0.00 | 0.00 | 56 | 1012.9 |
| 20260830152724 | 87 | 169 | 2.0 | 8.0 | 0.00 | 0.00 | 0.00 | 57 | 1012.8 |
| 20260830152223 | 87 | 139 | 2.0 | 8.0 | 0.00 | 0.00 | 0.00 | 58 | 1012.8 |
| 20260830151723 | 86 | 150 | 2.0 | 8.0 | 0.00 | 0.00 | 0.00 | 58 | 1012.8 |
| 20260830150724 | 85 | 257 | 2.0 | 8.0 | 0.00 | 0.00 | 0.00 | 59 | 1012.7 |
| 20260830150217 | 84 | 251 | 2.0 | 9.0 | 0.00 | 0.00 | 0.00 | 59 | 1012.7 |
| 20260830145205 | 84 | 257 | 2.0 | 9.0 | 0.00 | 0.00 | 0.00 | 59 | 1012.7 |
| 20260830144153 | 84 | 191 | 2.0 | 9.0 | 0.00 | 0.00 | 0.00 | 59 | 1012.8 |
| 20260830143646 | 84 | 107 | 3.0 | 8.0 | 0.00 | 0.00 | 0.00 | 59 | 1012.8 |
| 20260830142646 | 83 | 199 | 2.0 | 9.0 | 0.00 | 0.00 | 0.00 | 60 | 1012.7 |
| 20260830142145 | 83 | 175 | 3.0 | 8.0 | 0.00 | 0.00 | 0.00 | 60 | 1012.8 |
| 20260830141645 | 83 | 83 | 2.0 | 8.0 | 0.00 | 0.00 | 0.00 | 61 | 1012.8 |
| 20260830141145 | 82 | 133 | 3.0 | 11.0 | 0.00 | 0.00 | 0.00 | 62 | 1012.8 |
| 20260830140643 | 81 | 154 | 3.0 | 11.0 | 0.00 | 0.00 | 0.00 | 62 | 1013.0 |
| 20260830140143 | 81 | 305 | 2.0 | 9.0 | 0.00 | 0.00 | 0.00 | 63 | 1012.9 |
| 20260830135643 | 80 | 132 | 3.0 | 10.0 | 0.00 | 0.00 | 0.00 | 63 | 1013.0 |
| 20260830134139 | 79 | 172 | 2.0 | 7.0 | 0.00 | 0.00 | 0.00 | 65 | 1013.3 |
| 20260830133639 | 78 | 95 | 2.0 | 7.0 | 0.00 | 0.00 | 0.00 | 65 | 1013.4 |
| 20260830133137 | 78 | 151 | 2.0 | 9.0 | 0.00 | 0.00 | 0.00 | 65 | 1013.5 |
| 20260830132638 | 78 | 142 | 3.0 | 9.0 | 0.00 | 0.00 | 0.00 | 64 | 1013.5 |
| 20260830132137 | 78 | 152 | 3.0 | 8.0 | 0.00 | 0.00 | 0.00 | 64 | 1013.5 |
| 20260830131637 | 78 | 122 | 3.0 | 8.0 | 0.00 | 0.00 | 0.00 | 64 | 1013.5 |
| 20260830131137 | 78 | 190 | 2.0 | 5.0 | 0.00 | 0.00 | 0.00 | 64 | 1013.5 |
| 20260830130630 | 78 | 144 | 2.0 | 11.0 | 0.00 | 0.00 | 0.00 | 65 | 1013.5 |
| 20260830125619 | 78 | 163 | 2.0 | 7.0 | 0.00 | 0.00 | 0.00 | 65 | 1013.6 |
| 20260830125113 | 77 | 140 | 3.0 | 9.0 | 0.00 | 0.00 | 0.00 | 65 | 1013.7 |
| 20260830124607 | 77 | 145 | 2.0 | 9.0 | 0.00 | 0.00 | 0.00 | 66 | 1013.7 |
| 20260830124100 | 77 | 139 | 2.0 | 8.0 | 0.00 | 0.00 | 0.00 | 66 | 1013.5 |
| 20260830123555 | 77 | 92 | 3.0 | 8.0 | 0.00 | 0.00 | 0.00 | 65 | 1013.7 |
| 20260830123049 | 77 | 130 | 3.0 | 10.0 | 0.00 | 0.00 | 0.00 | 66 | 1013.6 |
| 20260830122036 | 77 | 169 | 2.0 | 9.0 | 0.00 | 0.00 | 0.00 | 65 | 1013.7 |
| 20260830121530 | 77 | 188 | 2.0 | 9.0 | 0.00 | 0.00 | 0.00 | 65 | 1013.6 |
| 20260830120518 | 77 | 152 | 2.0 | 8.0 | 0.00 | 0.00 | 0.00 | 64 | 1013.5 |
| 20260830120012 | 77 | 134 | 3.0 | 8.0 | 0.00 | 0.00 | 0.00 | 64 | 1013.6 |
| 20260830115507 | 77 | 167 | 3.0 | 10.0 | 0.00 | 0.00 | 0.00 | 64 | 1013.5 |
| 20260830113443 | 77 | 163 | 3.0 | 11.0 | 0.00 | 0.00 | 0.00 | 63 | 1013.4 |
| 20260830112441 | 78 | 165 | 3.0 | 9.0 | 0.00 | 0.00 | 0.00 | 62 | 1013.5 |
| 20260830111939 | 78 | 140 | 3.0 | 8.0 | 0.00 | 0.00 | 0.00 | 62 | 1013.5 |
| 20260830111442 | 78 | 134 | 3.0 | 7.0 | 0.00 | 0.00 | 0.00 | 62 | 1013.6 |
| 20260830110940 | 78 | 152 | 3.0 | 10.0 | 0.00 | 0.00 | 0.00 | 62 | 1013.6 |
| 20260830110437 | 78 | 136 | 3.0 | 10.0 | 0.00 | 0.00 | 0.00 | 62 | 1013.6 |
| 20260830105437 | 78 | 186 | 3.0 | 11.0 | 0.00 | 0.00 | 0.00 | 61 | 1013.7 |
| 20260830104935 | 78 | 157 | 3.0 | 11.0 | 0.00 | 0.00 | 0.00 | 61 | 1013.8 |
| 20260830104435 | 79 | 116 | 3.0 | 12.0 | 0.00 | 0.00 | 0.00 | 61 | 1013.8 |
| 20260830103935 | 79 | 123 | 3.0 | 12.0 | 0.00 | 0.00 | 0.00 | 60 | 1013.8 |
| 20260830102935 | 79 | 165 | 2.0 | 9.0 | 0.00 | 0.00 | 0.00 | 60 | 1013.7 |
| 20260830102435 | 79 | 163 | 2.0 | 9.0 | 0.00 | 0.00 | 0.00 | 60 | 1013.7 |
| 20260830101935 | 79 | 142 | 2.0 | 7.0 | 0.00 | 0.00 | 0.00 | 60 | 1013.7 |
| 20260830101433 | 79 | 136 | 2.0 | 7.0 | 0.00 | 0.00 | 0.00 | 60 | 1013.6 |
| 20260830100935 | 79 | 148 | 2.0 | 7.0 | 0.00 | 0.00 | 0.00 | 59 | 1013.5 |
| 20260830100435 | 80 | 200 | 2.0 | 7.0 | 0.00 | 0.00 | 0.00 | 59 | 1013.4 |
| 20260830095930 | 80 | 123 | 2.0 | 9.0 | 0.00 | 0.00 | 0.00 | 59 | 1013.4 |
| 20260830095423 | 80 | 129 | 2.0 | 9.0 | 0.00 | 0.00 | 0.00 | 59 | 1013.4 |
| 20260830094917 | 80 | 125 | 3.0 | 10.0 | 0.00 | 0.00 | 0.00 | 59 | 1013.3 |
| 20260830094411 | 80 | 142 | 2.0 | 10.0 | 0.00 | 0.00 | 0.00 | 58 | 1013.3 |
| 20260830093906 | 80 | 134 | 3.0 | 9.0 | 0.00 | 0.00 | 0.00 | 59 | 1013.3 |
| 20260830092904 | 80 | 158 | 3.0 | 8.0 | 0.00 | 0.00 | 0.00 | 58 | 1013.3 |
| 20260830092404 | 80 | 141 | 2.0 | 7.0 | 0.00 | 0.00 | 0.00 | 58 | 1013.3 |
| 20260830091905 | 80 | 154 | 2.0 | 9.0 | 0.00 | 0.00 | 0.00 | 58 | 1013.3 |
| 20260830091403 | 80 | 132 | 2.0 | 9.0 | 0.00 | 0.00 | 0.00 | 58 | 1013.2 |
| 20260830090403 | 80 | 90 | 2.0 | 7.0 | 0.00 | 0.00 | 0.00 | 58 | 1013.3 |
| 20260830085903 | 81 | 156 | 2.0 | 7.0 | 0.00 | 0.00 | 0.00 | 57 | 1013.3 |
| 20260830085402 | 81 | 191 | 2.0 | 7.0 | 0.00 | 0.00 | 0.00 | 57 | 1013.3 |
| 20260830084903 | 81 | 142 | 2.0 | 9.0 | 0.00 | 0.00 | 0.00 | 57 | 1013.2 |
| 20260830084403 | 81 | 176 | 3.0 | 11.0 | 0.00 | 0.00 | 0.00 | 56 | 1013.2 |
| 20260830083903 | 81 | 155 | 3.0 | 11.0 | 0.00 | 0.00 | 0.00 | 56 | 1013.0 |
| 20260830083400 | 81 | 178 | 3.0 | 10.0 | 0.00 | 0.00 | 0.00 | 56 | 1013.2 |
| 20260830082901 | 81 | 142 | 2.0 | 9.0 | 0.00 | 0.00 | 0.00 | 56 | 1013.2 |
| 20260830082400 | 81 | 141 | 2.0 | 10.0 | 0.00 | 0.00 | 0.00 | 56 | 1013.2 |
| 20260830081901 | 81 | 173 | 2.0 | 10.0 | 0.00 | 0.00 | 0.00 | 56 | 1013.4 |
| 20260830081401 | 81 | 108 | 2.0 | 9.0 | 0.00 | 0.00 | 0.00 | 56 | 1013.4 |
| 20260830080901 | 81 | 141 | 2.0 | 9.0 | 0.00 | 0.00 | 0.00 | 56 | 1013.4 |
| 20260830080359 | 81 | 209 | 2.0 | 8.0 | 0.00 | 0.00 | 0.00 | 56 | 1013.4 |
| 20260830075859 | 81 | 15 | 2.0 | 7.0 | 0.00 | 0.00 | 0.00 | 56 | 1013.4 |